Flag for Canada Weather past 2 weeks in Pond Inlet, Nunavut Territory, Canada

Now
46 °F

Sunny.


Feels Like: 45 °F
Forecast: 37 / 44 °F
Wind: 3 mph from West

Location: Pond Inlet

Current Time: Aug 30, 2014 at 2:41:59 PM

Latest Report: Aug 30, 2014 at 1:00 PM


Visibility: 9 mi

Pressure: 29.73 "Hg

Humidity: 57%

Dew point: 32 °F

Location of Pond InletLocation

Historic Weather in Pond Inlet — Graph

°F

Pond Inlet temperature yesterday

Maximum temperature yesterday: 48 °F (at 2:00 PM)
Minimum temperature yesterday: 36 °F (at 4:00 AM)
Average temperature yesterday: 41 °F

Past Weeks' High & Low Weather Summary

 TemperatureHumidityPressure
High54 °F (Aug 19, 12:00 PM)100% (Aug 25, 1:47 AM)30.24 "Hg (Aug 25, 1:47 AM)
Low32 °F (Aug 30, 5:00 AM)46% (Aug 18, 12:00 PM)29.52 "Hg (Aug 19, 12:00 PM)
Average41 °F79%29.90 "Hg
* Reported Aug 15 1:00 PM — Aug 30 1:00 PM, Pond Inlet, Weather by CustomWeather, © 2014

Note: Actual official high and low records may vary slightly from our data, if they occured in-between our weather recording intervals... More about our weather records

Advertising

Pond Inlet weather history for previous 24 hours

 ConditionsComfort  
Time TempWeatherWind HumidityBarometerVisibility
1:00 PM
Aug 30
46 °FSunny.3 mph57%29.73 "Hg9 mi
12:00 PM45 °FSunny.3 mph61%29.75 "Hg9 mi
11:00 AM45 °FSunny.7 mph66%29.75 "Hg9 mi
10:00 AM43 °FSunny.7 mph71%29.76 "Hg9 mi
9:00 AM41 °FSunny.5 mph70%29.76 "Hg9 mi
8:00 AM39 °FSunny.8 mph81%29.77 "Hg9 mi
7:00 AM37 °FSunny.3 mph81%29.76 "Hg9 mi
6:00 AM37 °FSunny.No wind75%29.77 "Hg9 mi
5:00 AM32 °FSunny.6 mph87%29.76 "Hg9 mi
4:00 AM34 °FSunny.7 mph81%29.76 "Hg9 mi
3:00 AM34 °FClear.5 mph81%29.77 "Hg9 mi
2:00 AM34 °FClear.9 mph87%29.77 "Hg9 mi
1:00 AM36 °FClear.2 mph81%29.78 "Hg9 mi
12:00 AM37 °FClear.5 mph75%29.79 "Hg9 mi
11:00 PM
Aug 29
39 °FClear.10 mph75%29.79 "Hg9 mi
10:00 PM39 °FClear.15 mph81%29.79 "Hg9 mi
9:00 PM39 °FClear.18 mph81%29.79 "Hg9 mi
8:00 PM41 °FSunny.18 mph81%29.78 "Hg9 mi
7:00 PM41 °FPassing clouds.17 mph81%29.79 "Hg30 mi
6:00 PM45 °FPassing clouds.16 mph71%29.80 "Hg30 mi
5:00 PM46 °FPassing clouds.17 mph66%29.80 "Hg30 mi
3:00 PM45 °FPassing clouds.17 mph71%29.82 "Hg30 mi
2:00 PM48 °FPassing clouds.8 mph62%29.83 "Hg30 mi
Weather by CustomWeather, © 2014

See weather overviewHow to use our weather pages